Weather History for Wakefield, VA

Change the Weather History Date:

Sunday, September 8, 2013

  Actual Average (KJGG) Record (KJGG)
Temperature  
Mean Temperature 74 °F -  
Max Temperature 88 °F 83 °F 100 °F (1954)
Min Temperature 62 °F 61 °F 45 °F (1988)
Cooling Degree Days 10    
Growing Degree Days 24 (Base 50)    
Moisture  
Dew Point 63 °F    
Average Humidity 75    
Maximum Humidity 93    
Minimum Humidity 44    
Precipitation  
Precipitation 0.00 in - - ()
Sea Level Pressure  
Sea Level Pressure 29.94 in    
Wind  
Wind Speed 2 mph (SW)    
Max Wind Speed 6 mph    
Max Gust Speed -    
Visibility 9 miles    
Events      
Averages and records for this station are not official NWS values.
T = Trace of Precipitation, MM = Missing Value Source: NWS Daily Summary

Daily Weather History Graph

Daily Weather History Graph

Search for Another Location

Airport:

Trip Planner

Search our weather history database for the weather conditions in past years. The results will help you decide how hot, cold, wet, or windy it might be!

Date:

Astronomy

Sep. 08, 2013 Rise Set
Actual Time 6:44 AM EDT 7:25 PM EDT
Civil Twilight 6:18 AM EDT 7:52 PM EDT
Nautical Twilight 5:47 AM EDT 8:22 PM EDT
Astronomical Twilight 5:15 AM EDT 8:54 PM EDT
Moon 9:54 AM EDT (9/8) 9:06 PM EDT (9/8)
Length of Visible Light 13h 33m
Length of Day
12h 41m
Waxing Crescent, 11% of the Moon is Illuminated
Sep 8
Waxing Crescent
Sep 12
First Quarter
Sep 19
Full
Sep 26
Last Quarter
Oct 4
New

Hourly Weather History & Observations

Time (EDT) Temp. Heat Index Dew Point Humidity Pressure Visibility Wind Dir Wind Speed Gust Speed Precip Events Conditions
12:54 AM 64.0 °F - 60.1 °F 87% 29.98 in 10.0 mi South 4.6 mph - N/A   Clear
1:54 AM 64.0 °F - 57.9 °F 80% 29.97 in 10.0 mi SSW 3.5 mph - N/A   Clear
2:54 AM 63.0 °F - 57.9 °F 84% 29.97 in 10.0 mi Calm Calm - N/A   Clear
3:54 AM 63.0 °F - 57.9 °F 84% 29.96 in 10.0 mi South 3.5 mph - N/A   Mostly Cloudy
4:54 AM 62.1 °F - 57.9 °F 86% 29.95 in 10.0 mi Calm Calm - N/A   Clear
5:54 AM 62.1 °F - 57.9 °F 86% 29.95 in 10.0 mi Calm Calm - N/A   Clear
6:54 AM 62.1 °F - 59.0 °F 90% 29.94 in 6.0 mi South 3.5 mph - N/A   Clear
7:54 AM 64.9 °F - 60.1 °F 84% 29.94 in 9.0 mi Calm Calm - N/A   Clear
8:54 AM 66.9 °F - 61.0 °F 81% 29.95 in 10.0 mi Calm Calm - N/A   Clear
9:54 AM 70.0 °F - 63.0 °F 78% 29.94 in 10.0 mi Calm Calm - N/A   Clear
10:54 AM 75.9 °F - 66.0 °F 71% 29.94 in 10.0 mi Variable 3.5 mph - N/A   Clear
11:54 AM 80.1 °F 82.1 °F 66.0 °F 62% 29.94 in 10.0 mi NNW 3.5 mph - N/A   Clear
12:54 PM 82.9 °F 85.4 °F 66.9 °F 58% 29.93 in 10.0 mi West 4.6 mph - N/A   Partly Cloudy
1:54 PM 84.9 °F 85.0 °F 61.0 °F 44% 29.91 in 10.0 mi Calm Calm - N/A   Clear
2:54 PM 87.1 °F 88.3 °F 64.0 °F 46% 29.90 in 10.0 mi WSW 4.6 mph - N/A   Clear
3:54 PM 87.1 °F 87.8 °F 63.0 °F 44% 29.89 in 10.0 mi Variable 5.8 mph - N/A   Clear
4:54 PM 87.1 °F 88.3 °F 64.0 °F 46% 29.90 in 10.0 mi North 4.6 mph - N/A   Clear
5:54 PM 84.9 °F 87.1 °F 66.0 °F 53% 29.91 in 10.0 mi Calm Calm - N/A   Clear
6:54 PM 80.1 °F 83.2 °F 70.0 °F 71% 29.92 in 9.0 mi Calm Calm - N/A   Clear
7:54 PM 73.0 °F - 70.0 °F 90% 29.93 in 6.0 mi Calm Calm - N/A   Clear
8:54 PM 71.1 °F - 68.0 °F 90% 29.96 in 6.0 mi Calm Calm - N/A   Clear
9:54 PM 70.0 °F - 66.9 °F 90% 29.98 in 5.0 mi Calm Calm - N/A   Clear
10:54 PM 69.1 °F - 66.9 °F 93% 29.99 in 4.0 mi Calm Calm - N/A   Clear
11:54 PM 69.1 °F - 66.0 °F 90% 30.00 in 3.0 mi Calm Calm - N/A   Clear